Regional Weather Roundup
Issued by NWS Upton, NY

Current Version | Previous Version | Text Only | Print | Product List | Glossary On
Versions: 1 2 3 4 5 6 7 8 9 10 11 12 13 14 15 16 17 18 19 20 21 22 23 24 25 26 27 28 29 30 31 32 33 34 35 36 37 38 39 40 41 42 43 44 45 46 47 48 49 50
000
ASUS41 KOKX 040118
RWROKX

REGIONAL WEATHER ROUNDUP
NATIONAL WEATHER SERVICE NEW YORK NY
900 PM EDT FRI JUL 03 2015

NOTE: "FAIR" INDICATES FEW OR NO CLOUDS BELOW 12,000 FEET WITH NO
SIGNIFICANT WEATHER AND/OR OBSTRUCTIONS TO VISIBILITY.

NYZ071-072-176-178-NJZ106-104-040200-
NEW YORK CITY METRO AREA


CITY           SKY/WX    TMP DP  RH WIND       PRES   REMARKS
CENTRAL PARK   CLOUDY    74  57  55 CALM      29.99R
LAGUARDIA APRT CLOUDY    74  56  53 S9        29.95S
KENNEDY INTL   CLOUDY    72  63  73 SE7       29.97F
NEWARK/LIBERTY CLOUDY    75  61  61 S9        29.95S
BRNX BOT. GARD   N/A     72  57  60 S5        29.98R
TETERBORO      CLOUDY    75  58  55 S7        29.94S
$$

NYZ177-179-078>081-040200-
LONG ISLAND NEW YORK

CITY           SKY/WX    TMP DP  RH WIND       PRES   REMARKS
FARMINGDALE    CLOUDY    71  57  61 S8        29.98R
ISLIP          MOCLDY    70  58  65 S5        29.96S
SHIRLEY        MOCLDY    67  59  75 CALM      29.99R
WESTHAMPTON    PTCLDY    63  60  90 CALM      30.00R
MONTAUK POINT    N/A     68  62  81 VRB3      30.00S
$$

NYZ052-065-067-040200-
HUDSON VALLEY

CITY           SKY/WX    TMP DP  RH WIND       PRES   REMARKS
WHITE PLAINS   CLOUDY    69  57  65 CALM      29.97S
NEWBURGH       MOCLDY    72  55  56 VRB5      29.97S
MONTGOMERY     CLOUDY    67  60  78 CALM      29.95F
POUGHKEEPSIE   CLOUDY    69  56  62 CALM      29.94F
ALBANY         MOCLDY    69  48  47 CALM      29.97R
$$

NJZ001-105-106-008-010-013-015-019>022-104-040200-
NEW JERSEY

CITY           SKY/WX    TMP DP  RH WIND       PRES   REMARKS
NEWARK/LIBERTY CLOUDY    75  61  61 S9        29.95S
TETERBORO      CLOUDY    75  58  55 S7        29.94S
CALDWELL       CLOUDY    74  57  55 CALM      29.95F
MORRISTOWN     CLOUDY    72  64  78 CALM      29.95F
SOMERVILLE     CLOUDY    69  64  84 S5        29.93S
SUSSEX         CLOUDY    68  61  78 CALM      29.95F
ANDOVER          N/A     67  62  84 CALM      29.96F
TRENTON        CLOUDY    74  63  68 S9        29.95R
MILLVILLE      CLOUDY    70  65  84 S5        29.97R
ATLANTIC CITY  CLOUDY    71  63  75 SE3       29.97S
WRIGHTSTOWN    CLOUDY    70  61  72 SE6       29.94S
TOMS RIVER     CLOUDY    68  61  77 CALM      29.98R
BELMAR         CLOUDY    70  57  64 S5        29.97S
$$

PAZ047>061-062-071-040200-
EASTERN PENNSYLVANIA

CITY           SKY/WX    TMP DP  RH WIND       PRES   REMARKS
PHILADELPHIA   CLOUDY    76  62  62 S7        29.96R
ALLENTOWN      CLOUDY    73  61  65 S3        29.95S
SCRANTON       CLOUDY    73  59  61 S6        29.95S
$$

CTZ002-004>006-009-010-012-RIZ004-006-007-MAZ004-011-015-040200-
SOUTHERN NEW ENGLAND
 IN CT

CITY           SKY/WX    TMP DP  RH WIND       PRES   REMARKS
BRADLEY INTL   CLOUDY    71  55  56 VRB7      29.95S
HARTFORD       CLOUDY    70  56  61 S6        29.96R
DANBURY        CLOUDY    69  52  54 S3        29.99S
WTRBRY/OXFORD  CLEAR     66  52  59 S6        30.01R
BRIDGEPORT     MOCLDY    71  60  68 S6        29.97S
MERIDEN        CLOUDY    66  57  72 CALM      29.97R
NEW HAVEN      MOCLDY    68  61  78 S5        29.98R
CHESTER        FAIR      66  59  77 S5        30.00R
GROTON         PTCLDY    66  61  84 S6        29.98R
WILLIMANTIC    CLOUDY    69  57  65 S5        29.98R

 IN RI

CITY           SKY/WX    TMP DP  RH WIND       PRES   REMARKS
PROVIDENCE     CLOUDY    68  53  58 S6        29.98S
BLOCK ISLAND   PTCLDY    64  59  82 S7        29.99S
WESTERLY       MOCLDY    67  59  75 S3        29.99S

 IN MA

CITY           SKY/WX    TMP DP  RH WIND       PRES   REMARKS
BOSTON         MOCLDY    68  56  65 SE6       29.96S
WORCESTER      PTCLDY    66  51  58 SW6       29.99S
WESTFIELD      MOCLDY    65  58  78 CALM      29.96S
PROVINCETOWN   PTCLDY    64   9  11 S9        29.99S
NANTUCKET      PTCLDY    57  54  89 S7        30.00R
$$

ANZ330-335-338-340-345-350-353-355-040200-
COASTAL MARINE OBSERVATIONS


STATION/POSITION TIME  SKY/WX   TEMP    WIND        PRES    VSBY  WAVE
                                AIR SEA DIR/SP/G                  HT/PER
                 (UTC)          (F)     (DEG/KT/KT) (MB)    (MI)  (FT/S)
NY HARB ENTRANCE 0050            70 69  170/  8/  8 1014.3          3/ 8
4S FIRE IS       0003               69                N/A           3/ 8
20S FIRE ISLAND  0050            70 69  160/  6/  8 1014.6          3/ 8
GREAT SOUTH BAY  0000            71 76  180/  6/  8   N/A
23SW MTP         0050            68 69  180/  6/  6 1015.2          3/ 8
HUDSON CANYON    NOT AVBL
KINGS POINT      0000            74 69  180/  4/  7 1013.9
CENTRAL LI SOUND NOT AVBL
EASTERN LI SOUND 0000            67 65  180/  6/  8   N/A
ROBBINS REEF     0000            72     170/ 13/ 14 1013.0
$$


>>>>>>>>>>>>>>>>>>>>>>>>>>>> KEY <<<<<<<<<<<<<<<<<<<<<<<<<<<
>                                                          <
>     SKY/WX - SKY CONDITION/PRESENT WEATHER               <
>     TMP    - TEMPERATURE IN FAHRENHEIT                   <
>     DP     - DEWPOINT IN FAHRENHEIT                      <
>     RH     - RELATIVE HUMIDITY IN PERCENT                <
>     WIND   - DIRECTION AND SPEED IN MPH                  <
>     PRES   - MEAN SEA LEVEL PRESSURE IN INCHES OF HG     <
>     WCI    - WIND CHILL INDEX                            <
>     VSB    - VISIBILITY IN MILES                         <
>     HX     - HEAT INDEX                                  <
>     TC     - TEMPERATURE IN CELSIUS                      <
>     VRB    - VARIABLE WIND DIRECTION                     <
>                                                          <
>>>>>>>>>>>>>>>>>>>>>>>>>>>> KEY <<<<<<<<<<<<<<<<<<<<<<<<<<<





USA.gov is the U.S. government's official web portal to all federal, state and local government web resources and services.